#timestamp,LO_Frequency,Hit,StdDev 
1651521615.7,286047000.5,N
1651521635.5,286047000.5,N
1651521655.3,286047002.7,N
1651521675.2,286047000.5,N
1651521695.0,286046998.6,N
1651521695.9,286046998.6,N
1651521715.7,286046998.7,N
1651521735.6,286046998.3,N
1651521755.4,286047001.0,N
1651521775.3,286046998.2,N
1651521795.1,286046998.5,N
1651521796.0,286046998.5,N
1651521815.8,286046998.7,N
1651521835.7,286046998.1,N
1651521855.5,286047000.8,N
1651521875.3,286046998.3,N
1651521895.2,286046998.5,N
1651521915.0,286046998.3,N
1651521915.9,286046998.3,N
1651521935.8,286046999.5,N
1651521955.6,286046998.9,N
1651521975.4,286046996.6,N
1651521995.3,286046997.4,N
1651522015.1,286046995.4,Y
1651522035.9,286046995.2,P
1651522055.7,286046994.9,N
1651522075.5,286046997.9,N
1651522095.4,286046997.3,N
1651522115.2,286046995.4,N
1651522135.0,286046998.0,N
1651522135.9,286046998.0,N
1651522155.8,286046995.6,N
1651522175.6,286046995.0,Y
1651522195.5,286046998.5,P
1651522215.3,286046999.2,N
1651522235.1,286046999.2,N
1651522255.9,286046999.0,N
1651522275.7,286046998.7,N
1651522295.6,286046997.1,Y
1651522315.4,286046999.6,P
1651522335.2,286046999.5,N
1651522355.1,286046997.4,P
1651522356.0,286046997.4,N
1651522375.8,286046996.6,Y
1651522395.7,286046999.4,P
1651522415.5,286046999.3,N
1651522435.3,286046999.3,N
1651522455.2,286046997.4,Y
1651522475.9,286046997.9,P
1651522495.7,286046995.1,P
1651522515.6,286046995.3,N
1651522535.4,286046998.0,N
1651522555.2,286046996.7,N
1651522575.1,286046995.0,Y
1651522576.0,286046995.0,P
1651522595.8,286046998.2,N
1651522615.7,286047000.9,N
1651522635.5,286046998.8,N
1651522655.3,286046998.9,N
1651522675.2,286046996.5,N
1651522695.0,286046999.6,N
1651522695.9,286046999.6,N
1651522715.8,286046998.6,N
1651522735.6,286046999.0,N
1651522755.4,286046996.7,N
1651522775.3,286046997.4,N
1651522795.1,286046995.6,N
1651522815.8,286046995.4,N
1651522835.7,286046997.3,N
1651522855.5,286046997.5,N
1651522875.4,286046997.2,N
1651522895.2,286046999.1,N
1651522915.0,286046996.6,N
1651522915.9,286046996.6,N
1651522935.8,286046999.2,N
1651522955.6,286046999.1,N
1651522975.4,286046999.3,N
1651522995.3,286046999.5,N
1651523015.1,286046997.0,N
1651523035.9,286046997.5,N
1651523055.7,286046996.8,N
1651523075.5,286046996.8,N
1651523095.4,286046997.3,N
1651523115.2,286046997.2,N
1651523135.1,286046996.6,N
1651523136.0,286046996.6,N
1651523155.8,286046996.7,N
1651523175.6,286046996.8,N
1651523195.5,286046998.0,N
1651523215.3,286046997.6,N
1651523235.1,286046997.9,N
1651523255.9,286046997.5,N
1651523275.7,286046998.0,N
1651523295.6,286046995.2,Y
1651523315.4,286046999.2,P
1651523335.2,286046998.5,N
1651523355.1,286046998.2,N
1651523356.0,286046998.2,N
1651523375.8,286046998.1,Y
1651523395.7,286047002.3,P
1651523415.5,286046999.8,N
1651523435.3,286047002.7,N
1651523455.2,286047002.3,N
1651523475.0,286047000.0,N
1651523475.9,286047000.0,N
1651523495.8,286047000.3,N
1651523515.6,286046998.5,N
1651523535.4,286047000.2,N
1651523555.3,286047000.2,N
1651523575.1,286047001.1,N
1651523595.8,286046998.2,N
1651523615.7,286047000.7,N
1651523635.5,286046998.2,N
1651523685.4,286047000.7,E
1651523695.3,286046998.1,N
1651523715.1,286047001.0,P
1651523735.9,286047000.9,N
1651523755.7,286046998.2,N
1651523775.6,286046998.8,N
1651523795.4,286046997.0,N
1651523815.2,286046996.9,N
1651523835.1,286046999.5,N
1651523836.0,286046999.5,N
1651523855.8,286046998.4,N
1651523875.6,286047000.9,N
1651523895.5,286046998.2,N
1651523915.3,286047000.6,N
1651523935.2,286047001.2,N
1651523955.9,286046998.1,N
1651523975.7,286046998.6,N
1651523995.6,286047001.2,N
1651524015.4,286047000.2,N
1651524035.2,286047000.5,N
1651524055.1,286047001.2,N
1651524056.0,286047001.2,N
1651524075.8,286046998.3,N
1651524095.7,286046998.1,N
1651524115.5,286046998.6,N
1651524135.3,286046999.0,N
1651524155.2,286046998.8,N
1651524175.0,286046998.3,N
1651524175.9,286046998.3,N
1651524195.8,286046998.1,N
1651524215.6,286047000.5,N
1651524235.4,286047001.0,N
1651524255.3,286047001.1,N
1651524275.1,286047000.5,N
1651524295.8,286047000.6,N
1651524315.7,286046998.3,N
1651524335.5,286046998.9,N
1651524355.4,286046999.0,N
1651524375.2,286046997.0,N
1651524395.0,286046998.8,N
1651524395.9,286046998.8,N
1651524415.8,286046998.8,N
1651524435.6,286046999.2,N
1651524455.4,286046998.4,N
1651524475.3,286046998.3,N
1651524495.1,286047000.8,N
1651524515.9,286046998.7,N
1651524535.7,286047001.2,N
1651524555.5,286047000.6,N
1651524575.4,286047000.9,N
1651524595.2,286047002.7,N
1651524615.0,286047002.1,N
1651524615.9,286047002.1,N
1651524635.8,286047001.5,N
1651524655.6,286047002.2,N
1651524675.5,286047002.0,N
1651524695.3,286047001.8,N
1651524715.1,286047001.8,N
1651524735.9,286047002.6,N
1651524755.7,286047002.8,N
1651524775.5,286047002.1,N
1651524795.4,286047000.2,N
1651524815.2,286047002.8,N
1651524835.1,286047002.8,N
1651524836.0,286047002.8,N
1651524855.8,286047002.3,N
1651524875.6,286047004.4,N
1651524895.5,286047004.1,N
1651524915.3,286047003.5,N
1651524935.2,286047003.3,N
1651524955.9,286047003.4,N
1651524975.7,286047006.0,Y
1651524995.6,286047004.1,P
1651525015.4,286047002.7,N
1651525035.2,286047002.6,N
1651525055.1,286047002.3,N
1651525056.0,286047002.3,N
1651525075.8,286046999.8,N
1651525095.7,286046999.7,N
1651525115.5,286047002.4,N
1651525135.3,286047002.4,N
1651525155.2,286046999.8,N
1651525175.0,286047002.2,N
1651525175.9,286047002.2,N
1651525195.7,286047000.2,N
